Weather in Singaraja

Indonesia     8°07′30″S   115°06′07″E
temp.,
°C
wind,
m/s
gust,
m/s
humid.,
%
clouds,
%
prec.,
mm/h
press.,
hPa
HPBL,
m
29 june, wed
wed2923:00+18sse348995 0.0 101289
02:00+18sse349314 0.0 101190
05:00+19sse3492100 0.0 1010129
08:00+21sse348489 0.0 1011250
11:00+27s235865 0.0 10101104
14:00+26s236579 0.1 10081066
17:00+24s34777 0.1 1008622
20:00+19sse34949 0.2 1011129
30 june, thu
thu3023:00+20sse349375 0.0 1011152
02:00+20sse349493 0.0 1010149
05:00+19sse249590 0.0 1010100
08:00+22se248513 0.0 1011228
11:00+28e025655 0.1 10101203
14:00+27nne1263100 0.3 10081089
17:00+25sse127269 0.1 1008689
20:00+21sse2493100 0.2 1012163
1 july, fri
fri123:00+20se249578 0.1 1012143
02:00+20sse2496100 0.1 1011147
05:00+20se249599 0.1 1010113
08:00+22se2382100 0.1 1012223
11:00+27ese1261100 0.1 10111099
14:00+26ese127178 1.1 1009899
17:00+23sse238381 0.6 1009351
20:00+21sse359599 0.8 1011201
2 july, sat
sat223:00+21sse2495100 0.1 1012176
02:00+21sse359699 0.4 1010251
05:00+21sse2494100 0.2 1010229
08:00+22sse249161 0.6 1011330
11:00+24sse238094 0.6 1011654
14:00+23s239299 2.3 1009389
17:00+21sse2498100 5.1 1009262
20:00+21sse249799 6.4 1010194
3 july, sun
sun323:00+21sse2497100 0.1 1011227
02:00+21sse239773 0.3 1009172
05:00+21se239787 0.1 1009122
08:00+22se119263 0.1 101094
11:00+25nnw1178100 0.3 1010498
14:00+23wnw019098 1.6 1008215
17:00+23s119185 0.3 1007118
20:00+22sse119785 0.4 100984